Location: LDNL
(36.4545°S, 141.6685°E)
Time: 11:47:45
(UTC+10:00)

Explorer 7 - Pass Details

Date: 13 August 2022
Orbit: 482 x 668 km, 50.3° (Epoch: 26 September)

Event Time Altitude Azimuth Distance (km) Brightness Sun altitude
Rises 00:20:58 0° 227° (SW) 2,884 - -68.1°
Reaches altitude 10° 00:23:28 10° 219° (SW) 1,942 - -68.1°
Maximum altitude 00:27:38 39° 150° (SSE) 869 - -68.3°
Drops below altitude 10° 00:31:32 10° 80° (E) 1,816 - -68.3°
Sets 00:33:48 0° 71° (ENE) 2,671 - -68.4°
